Pellston, MI

2:44 AM EDT on September 20, 2017 (GMT -0400)
Pellston Regional Airport Of Emmet County

Weather History for KPLN - March, 2014

Change the Weather History Date:

Wednesday, March 12, 2014

  Actual Average Record
Temperature  
Mean Temperature 13 °F -  
Max Temperature 25 °F 34 °F 63 °F (1990)
Min Temperature 0 °F 10 °F -20 °F (1960)
Degree Days  
Heating Degree Days 52    
Moisture  
Dew Point 1 °F    
Average Humidity 61    
Maximum Humidity 76    
Minimum Humidity 43    
Precipitation  
Precipitation 0.00 in - - ()
Sea Level Pressure  
Sea Level Pressure 30.00 in    
Wind  
Wind Speed 12 mph (North)    
Max Wind Speed 18 mph    
Max Gust Speed 20 mph    
Visibility 10 miles    
Events      
Averages and records for this station are not official NWS values.
T = Trace of Precipitation, MM = Missing Value Source: NWS Daily Summary

Daily Weather History Graph

Daily Weather History Graph

Search for Another Location

Airport or City:

Trip Planner

Search our weather history database for the weather conditions in past years. The results will help you decide how hot, cold, wet, or windy it might be!

Date:

Astronomy

Mar. 12, 2014 Rise Set
Actual Time 7:57 AM EDT 7:41 PM EDT
Civil Twilight 7:27 AM EDT 8:10 PM EDT
Nautical Twilight 6:53 AM EDT 8:45 PM EDT
Astronomical Twilight 6:18 AM EDT 9:20 PM EDT
Moon 4:02 PM EDT (3/12) 5:37 AM EDT (3/12)
Length of Visible Light 12h 42m
Length of Day
11h 43m
Waxing Gibbous, 85% of the Moon is Illuminated
Mar 12
Waxing Gibbous
Mar 16
Full
Mar 23
Last Quarter
Mar 30
New
Apr 7
First Quarter

Hourly Weather History & Observations

Time (EDT) Temp. Windchill Dew Point Humidity Pressure Visibility Wind Dir Wind Speed Gust Speed Precip Events Conditions
12:54 AM 25.0 °F 14.8 °F 16.0 °F 69% 29.89 in 10.0 mi NNW 10.4 mph - N/A   Clear
1:54 AM 24.1 °F 14.4 °F 16.0 °F 71% 29.88 in 10.0 mi NNW 9.2 mph - N/A   Clear
2:54 AM 23.0 °F 11.7 °F 16.0 °F 74% 29.88 in 10.0 mi North 11.5 mph - N/A   Clear
3:54 AM 23.0 °F 13.9 °F 16.0 °F 74% 29.90 in 10.0 mi North 8.1 mph - N/A   Overcast
4:54 AM 21.0 °F 7.6 °F 14.0 °F 74% 29.89 in 10.0 mi NNE 15.0 mph - N/A   Overcast
5:13 AM 19.9 °F 6.7 °F 12.0 °F 71% 29.86 in 10.0 mi NNE 13.8 mph - N/A   Overcast
5:54 AM 17.1 °F 1.0 °F 9.0 °F 71% 29.91 in 10.0 mi North 18.4 mph - N/A   Overcast
6:54 AM 12.0 °F -5.1 °F 1.0 °F 61% 29.96 in 10.0 mi NE 17.3 mph - N/A   Mostly Cloudy
7:54 AM 8.1 °F -7.7 °F -2.0 °F 64% 30.00 in 10.0 mi NNE 12.7 mph - N/A   Clear
8:54 AM 5.0 °F -11.6 °F -4.0 °F 66% 30.01 in 10.0 mi North 12.7 mph - N/A   Clear
9:54 AM 6.1 °F -10.9 °F -5.1 °F 60% 30.02 in 10.0 mi North 13.8 mph - N/A   Clear
10:54 AM 6.1 °F -12.8 °F -6.0 °F 58% 30.04 in 10.0 mi NNE 17.3 mph - N/A   Clear
11:54 AM 8.1 °F -7.7 °F -5.1 °F 55% 30.04 in 10.0 mi NNE 12.7 mph - N/A   Clear
12:54 PM 9.0 °F -3.2 °F -6.0 °F 51% 30.03 in 10.0 mi NNE 8.1 mph - N/A   Clear
1:54 PM 10.9 °F -5.9 °F -4.0 °F 51% 30.02 in 10.0 mi North 16.1 mph - N/A   Clear
2:54 PM 14.0 °F 0.5 °F -5.1 °F 43% 30.01 in 10.0 mi NNE 11.5 mph - N/A   Clear
3:54 PM 15.1 °F 1.8 °F -2.0 °F 47% 30.01 in 10.0 mi NNW 11.5 mph 19.6 mph N/A   Clear
4:54 PM 14.0 °F 2.0 °F -2.0 °F 49% 30.02 in 10.0 mi North 9.2 mph - N/A   Clear
5:54 PM 14.0 °F 0.5 °F -4.0 °F 45% 30.04 in 10.0 mi NNW 11.5 mph - N/A   Clear
6:54 PM 12.0 °F -2.0 °F -5.1 °F 46% 30.06 in 10.0 mi NW 11.5 mph - N/A   Clear
7:54 PM 8.1 °F -8.4 °F -2.9 °F 61% 30.10 in 10.0 mi NW 13.8 mph - N/A   Clear
8:54 PM 6.1 °F -8.7 °F -5.1 °F 60% 30.12 in 10.0 mi NW 10.4 mph - N/A   Clear
9:54 PM 3.9 °F -9.4 °F -6.0 °F 64% 30.14 in 10.0 mi NW 8.1 mph - N/A   Clear
10:54 PM 1.9 °F -11.8 °F -6.0 °F 69% 30.15 in 10.0 mi WNW 8.1 mph - N/A   Clear
11:54 PM -0.0 °F -11.6 °F -6.0 °F 76% 30.14 in 10.0 mi WNW 5.8 mph - N/A   Clear